Time,TemperatureF,DewpointF,PressureIn,WindDirection,WindDirectionDegrees,WindSpeedMPH,WindSpeedGustMPH,Humidity,HourlyPrecipIn,Conditions,Clouds,dailyrainin,SoftwareType,DateUTC
2013-01-25 00:04:00,34.9,33.0,30.23,ENE,69,3.0,7.0,91,0.00,,,0.00,weatherlink.com 1.10,2013-01-25 08:04:00,
2013-01-25 00:19:00,34.9,32.0,30.23,East,85,3.0,6.0,90,0.00,,,0.00,weatherlink.com 1.10,2013-01-25 08:19:00,
2013-01-25 00:34:00,34.7,32.0,30.24,East,91,1.0,4.0,90,0.00,,,0.00,weatherlink.com 1.10,2013-01-25 08:34:00,
2013-01-25 00:49:00,34.7,32.0,30.23,East,98,0.0,4.0,91,0.00,,,0.00,weatherlink.com 1.10,2013-01-25 08:49:00,
2013-01-25 01:04:00,34.8,32.0,30.23,NE,46,2.0,5.0,90,0.00,,,0.00,weatherlink.com 1.10,2013-01-25 09:04:00,
2013-01-25 01:19:00,34.4,32.0,30.23,SE,138,1.0,3.0,91,0.00,,,0.00,weatherlink.com 1.10,2013-01-25 09:19:00,
2013-01-25 01:34:00,33.8,32.0,30.23,ENE,60,1.0,3.0,92,0.00,,,0.00,weatherlink.com 1.10,2013-01-25 09:34:00,
2013-01-25 01:49:00,33.8,32.0,30.23,NE,52,4.0,4.0,93,0.00,,,0.00,weatherlink.com 1.10,2013-01-25 09:49:00,
2013-01-25 02:04:00,34.5,33.0,30.23,ESE,110,2.0,8.0,92,0.00,,,0.00,weatherlink.com 1.10,2013-01-25 10:04:00,
2013-01-25 02:19:00,35.2,33.0,30.23,East,86,1.0,5.0,91,0.01,,,0.01,weatherlink.com 1.10,2013-01-25 10:19:00,
2013-01-25 02:34:00,34.9,33.0,30.23,East,98,3.0,6.0,92,0.01,,,0.01,weatherlink.com 1.10,2013-01-25 10:34:00,
2013-01-25 02:49:00,34.3,33.0,30.22,ENE,60,1.0,4.0,94,0.03,,,0.03,weatherlink.com 1.10,2013-01-25 10:49:00,
2013-01-25 03:04:00,34.3,33.0,30.22,East,88,2.0,5.0,94,0.03,,,0.03,weatherlink.com 1.10,2013-01-25 11:04:00,
2013-01-25 03:19:00,33.4,32.0,30.21,NE,49,3.0,6.0,95,0.02,,,0.03,weatherlink.com 1.10,2013-01-25 11:19:00,
2013-01-25 03:34:00,33.4,32.0,30.21,ENE,58,4.0,6.0,96,0.02,,,0.03,weatherlink.com 1.10,2013-01-25 11:34:00,
2013-01-25 03:49:00,33.6,32.0,30.21,ENE,62,1.0,6.0,95,0.00,,,0.03,weatherlink.com 1.10,2013-01-25 11:49:00,
2013-01-25 04:04:00,34.1,33.0,30.21,ENE,65,3.0,6.0,94,0.01,,,0.04,weatherlink.com 1.10,2013-01-25 12:04:00,
2013-01-25 04:19:00,34.1,33.0,30.20,NE,52,7.0,7.0,95,0.01,,,0.04,weatherlink.com 1.10,2013-01-25 12:19:00,
2013-01-25 04:34:00,34.0,33.0,30.20,NE,42,6.0,7.0,96,0.03,,,0.06,weatherlink.com 1.10,2013-01-25 12:34:00,
2013-01-25 04:49:00,34.1,33.0,30.19,East,84,3.0,6.0,96,0.03,,,0.06,weatherlink.com 1.10,2013-01-25 12:49:00,
2013-01-25 05:04:00,34.3,33.0,30.20,NE,42,2.0,6.0,96,0.02,,,0.06,weatherlink.com 1.10,2013-01-25 13:04:00,
2013-01-25 05:20:00,34.3,33.0,30.20,NE,46,5.0,5.0,96,0.02,,,0.07,weatherlink.com 1.10,2013-01-25 13:20:00,
2013-01-25 05:35:00,33.9,33.0,30.20,NE,52,2.0,4.0,96,0.02,,,0.08,weatherlink.com 1.10,2013-01-25 13:35:00,
2013-01-25 05:49:00,34.0,33.0,30.20,ENE,75,0.0,3.0,97,0.02,,,0.08,weatherlink.com 1.10,2013-01-25 13:49:00,
2013-01-25 06:04:00,34.1,33.0,30.20,NE,55,0.0,4.0,97,0.03,,,0.09,weatherlink.com 1.10,2013-01-25 14:04:00,
2013-01-25 06:20:00,33.7,33.0,30.20,ENE,77,1.0,3.0,97,0.02,,,0.09,weatherlink.com 1.10,2013-01-25 14:20:00,
2013-01-25 06:34:00,34.3,34.0,30.20,ENE,61,1.0,4.0,97,0.01,,,0.09,weatherlink.com 1.10,2013-01-25 14:34:00,
2013-01-25 06:49:00,34.0,33.0,30.19,East,84,2.0,6.0,97,0.01,,,0.09,weatherlink.com 1.10,2013-01-25 14:49:00,
2013-01-25 07:05:00,34.0,33.0,30.20,NE,46,2.0,5.0,97,0.00,,,0.09,weatherlink.com 1.10,2013-01-25 15:05:00,
2013-01-25 07:19:00,33.9,33.0,30.19,ENE,77,3.0,6.0,97,0.00,,,0.09,weatherlink.com 1.10,2013-01-25 15:19:00,
2013-01-25 07:34:00,34.1,33.0,30.19,NE,53,3.0,7.0,97,0.00,,,0.09,weatherlink.com 1.10,2013-01-25 15:34:00,
2013-01-25 07:49:00,34.5,34.0,30.19,NE,52,3.0,6.0,97,0.01,,,0.10,weatherlink.com 1.10,2013-01-25 15:49:00,
2013-01-25 08:04:00,34.5,34.0,30.18,NE,53,2.0,6.0,97,0.02,,,0.11,weatherlink.com 1.10,2013-01-25 16:04:00,
2013-01-25 08:19:00,35.4,35.0,30.19,ENE,70,1.0,7.0,97,0.02,,,0.11,weatherlink.com 1.10,2013-01-25 16:19:00,
2013-01-25 08:35:00,35.5,35.0,30.18,East,88,3.0,5.0,97,0.03,,,0.12,weatherlink.com 1.10,2013-01-25 16:35:00,
2013-01-25 08:50:00,35.3,34.0,30.18,East,83,1.0,6.0,96,0.03,,,0.13,weatherlink.com 1.10,2013-01-25 16:50:00,
2013-01-25 09:05:00,34.7,34.0,30.18,ENE,70,2.0,6.0,97,0.02,,,0.13,weatherlink.com 1.10,2013-01-25 17:05:00,
2013-01-25 09:20:00,35.5,35.0,30.18,East,80,1.0,3.0,97,0.02,,,0.13,weatherlink.com 1.10,2013-01-25 17:20:00,
2013-01-25 09:35:00,35.9,35.0,30.18,ENE,57,2.0,3.0,96,0.01,,,0.13,weatherlink.com 1.10,2013-01-25 17:35:00,
2013-01-25 09:50:00,36.0,35.0,30.18,ENE,63,3.0,5.0,96,0.00,,,0.13,weatherlink.com 1.10,2013-01-25 17:50:00,
2013-01-25 10:05:00,35.9,35.0,30.17,ENE,75,2.0,5.0,96,0.00,,,0.13,weatherlink.com 1.10,2013-01-25 18:05:00,
2013-01-25 10:20:00,36.5,36.0,30.17,NE,56,1.0,5.0,96,0.00,,,0.13,weatherlink.com 1.10,2013-01-25 18:20:00,
2013-01-25 10:35:00,36.5,36.0,30.17,East,89,1.0,4.0,96,0.00,,,0.13,weatherlink.com 1.10,2013-01-25 18:35:00,
2013-01-25 10:50:00,36.6,35.0,30.17,ENE,69,3.0,4.0,95,0.00,,,0.13,weatherlink.com 1.10,2013-01-25 18:50:00,
2013-01-25 11:05:00,37.2,36.0,30.15,ENE,65,3.0,6.0,96,0.00,,,0.13,weatherlink.com 1.10,2013-01-25 19:05:00,
2013-01-25 11:20:00,37.6,36.0,30.15,ENE,77,2.0,7.0,94,0.00,,,0.13,weatherlink.com 1.10,2013-01-25 19:20:00,
2013-01-25 11:35:00,37.3,36.0,30.14,NE,36,5.0,5.0,94,0.00,,,0.13,weatherlink.com 1.10,2013-01-25 19:35:00,
2013-01-25 11:50:00,37.3,36.0,30.13,NE,52,3.0,6.0,93,0.00,,,0.13,weatherlink.com 1.10,2013-01-25 19:50:00,
2013-01-25 12:05:00,36.5,35.0,30.12,NE,47,6.0,6.0,95,0.00,,,0.13,weatherlink.com 1.10,2013-01-25 20:05:00,
2013-01-25 12:20:00,36.3,35.0,30.11,ENE,65,6.0,8.0,95,0.00,,,0.13,weatherlink.com 1.10,2013-01-25 20:20:00,
2013-01-25 12:35:00,36.3,35.0,30.10,NE,56,4.0,8.0,95,0.00,,,0.13,weatherlink.com 1.10,2013-01-25 20:35:00,
2013-01-25 12:50:00,36.6,36.0,30.11,NE,44,3.0,4.0,96,0.01,,,0.14,weatherlink.com 1.10,2013-01-25 20:50:00,
2013-01-25 13:05:00,37.0,36.0,30.09,NE,49,2.0,2.0,95,0.01,,,0.14,weatherlink.com 1.10,2013-01-25 21:05:00,
2013-01-25 13:20:00,36.9,36.0,30.09,NE,47,2.0,3.0,95,0.01,,,0.14,weatherlink.com 1.10,2013-01-25 21:20:00,
2013-01-25 13:35:00,37.7,36.0,30.09,NE,41,0.0,2.0,95,0.02,,,0.15,weatherlink.com 1.10,2013-01-25 21:35:00,
2013-01-25 13:50:00,36.6,35.0,30.09,North,349,0.0,2.0,94,0.03,,,0.17,weatherlink.com 1.10,2013-01-25 21:50:00,
2013-01-25 14:06:00,37.3,36.0,30.09,North,349,0.0,1.0,96,0.04,,,0.18,weatherlink.com 1.10,2013-01-25 22:06:00,
2013-01-25 14:20:00,37.5,36.0,30.09,North,349,1.0,1.0,94,0.05,,,0.19,weatherlink.com 1.10,2013-01-25 22:20:00,
2013-01-25 14:35:00,36.9,36.0,30.08,ENE,74,0.0,1.0,96,0.06,,,0.21,weatherlink.com 1.10,2013-01-25 22:35:00,
2013-01-25 14:50:00,36.2,35.0,30.08,NE,44,0.0,1.0,96,0.05,,,0.22,weatherlink.com 1.10,2013-01-25 22:50:00,
2013-01-25 15:05:00,35.9,35.0,30.08,NE,46,0.0,1.0,96,0.05,,,0.23,weatherlink.com 1.10,2013-01-25 23:05:00,
2013-01-25 15:20:00,36.2,36.0,30.08,ENE,63,2.0,2.0,97,0.05,,,0.24,weatherlink.com 1.10,2013-01-25 23:20:00,
2013-01-25 15:35:00,36.1,35.0,30.07,East,82,1.0,4.0,97,0.04,,,0.25,weatherlink.com 1.10,2013-01-25 23:35:00,
2013-01-25 15:51:00,36.4,36.0,30.07,NE,47,1.0,2.0,97,0.04,,,0.26,weatherlink.com 1.10,2013-01-25 23:51:00,
2013-01-25 16:05:00,36.4,36.0,30.07,NNE,31,0.0,4.0,97,0.05,,,0.28,weatherlink.com 1.10,2013-01-26 00:05:00,
2013-01-25 16:21:00,36.1,35.0,30.06,ENE,72,2.0,3.0,97,0.05,,,0.29,weatherlink.com 1.10,2013-01-26 00:21:00,
2013-01-25 16:35:00,35.7,35.0,30.06,East,80,0.0,1.0,97,0.05,,,0.30,weatherlink.com 1.10,2013-01-26 00:35:00,
2013-01-25 16:51:00,35.5,35.0,30.05,NE,56,5.0,6.0,98,0.06,,,0.32,weatherlink.com 1.10,2013-01-26 00:51:00,
2013-01-25 17:05:00,34.9,34.0,30.05,NE,53,6.0,8.0,97,0.05,,,0.33,weatherlink.com 1.10,2013-01-26 01:05:00,
2013-01-25 17:21:00,35.0,35.0,30.04,NE,46,7.0,8.0,98,0.05,,,0.34,weatherlink.com 1.10,2013-01-26 01:21:00,
2013-01-25 17:36:00,35.1,35.0,30.04,ENE,62,2.0,10.0,98,0.04,,,0.34,weatherlink.com 1.10,2013-01-26 01:36:00,
2013-01-25 17:51:00,35.3,35.0,30.04,ESE,103,1.0,5.0,98,0.02,,,0.34,weatherlink.com 1.10,2013-01-26 01:51:00,
2013-01-25 18:06:00,35.6,35.0,30.04,East,86,0.0,2.0,98,0.02,,,0.35,weatherlink.com 1.10,2013-01-26 02:06:00,
2013-01-25 18:21:00,35.1,35.0,30.03,East,100,0.0,2.0,98,0.01,,,0.35,weatherlink.com 1.10,2013-01-26 02:21:00,
2013-01-25 18:36:00,35.4,35.0,30.03,ENE,72,0.0,1.0,98,0.01,,,0.35,weatherlink.com 1.10,2013-01-26 02:36:00,
2013-01-25 18:51:00,35.3,35.0,30.03,ENE,62,2.0,3.0,98,0.01,,,0.35,weatherlink.com 1.10,2013-01-26 02:51:00,
2013-01-25 19:06:00,35.4,35.0,30.03,ENE,70,1.0,3.0,98,0.00,,,0.35,weatherlink.com 1.10,2013-01-26 03:06:00,
2013-01-25 19:21:00,35.7,35.0,30.03,ENE,77,2.0,4.0,98,0.00,,,0.35,weatherlink.com 1.10,2013-01-26 03:21:00,
2013-01-25 19:36:00,35.9,35.0,30.02,East,86,1.0,2.0,98,0.00,,,0.35,weatherlink.com 1.10,2013-01-26 03:36:00,
2013-01-25 19:51:00,35.9,35.0,30.02,East,89,0.0,2.0,98,0.00,,,0.35,weatherlink.com 1.10,2013-01-26 03:51:00,
2013-01-25 20:06:00,35.9,35.0,30.02,NNE,17,1.0,1.0,98,0.00,,,0.35,weatherlink.com 1.10,2013-01-26 04:06:00,
2013-01-25 20:21:00,35.9,35.0,30.01,NE,47,2.0,2.0,98,0.00,,,0.35,weatherlink.com 1.10,2013-01-26 04:21:00,
2013-01-25 20:37:00,36.0,36.0,30.01,NE,56,1.0,2.0,98,0.00,,,0.35,weatherlink.com 1.10,2013-01-26 04:37:00,
2013-01-25 20:51:00,35.6,35.0,30.00,ENE,60,1.0,3.0,98,0.00,,,0.35,weatherlink.com 1.10,2013-01-26 04:51:00,
2013-01-25 21:06:00,35.3,35.0,30.00,ENE,65,0.0,2.0,98,0.01,,,0.36,weatherlink.com 1.10,2013-01-26 05:06:00,
2013-01-25 21:21:00,35.6,35.0,30.00,NNE,32,3.0,4.0,98,0.01,,,0.36,weatherlink.com 1.10,2013-01-26 05:21:00,
2013-01-25 21:36:00,35.5,35.0,30.00,East,83,2.0,5.0,98,0.01,,,0.36,weatherlink.com 1.10,2013-01-26 05:36:00,
2013-01-25 21:51:00,35.0,35.0,30.00,East,82,1.0,4.0,98,0.00,,,0.36,weatherlink.com 1.10,2013-01-26 05:51:00,
2013-01-25 22:06:00,34.6,34.0,30.00,ENE,63,0.0,2.0,98,0.00,,,0.36,weatherlink.com 1.10,2013-01-26 06:06:00,
2013-01-25 22:21:00,34.6,34.0,30.00,East,86,2.0,2.0,98,0.00,,,0.36,weatherlink.com 1.10,2013-01-26 06:21:00,
2013-01-25 22:36:00,34.5,34.0,30.00,ESE,105,2.0,5.0,98,0.00,,,0.36,weatherlink.com 1.10,2013-01-26 06:36:00,
2013-01-25 22:51:00,34.6,34.0,30.00,East,86,1.0,3.0,98,0.01,,,0.37,weatherlink.com 1.10,2013-01-26 06:51:00,
2013-01-25 23:06:00,34.5,34.0,30.00,ENE,60,1.0,5.0,98,0.01,,,0.37,weatherlink.com 1.10,2013-01-26 07:06:00,
2013-01-25 23:21:00,34.8,34.0,30.00,ENE,68,1.0,4.0,98,0.01,,,0.37,weatherlink.com 1.10,2013-01-26 07:21:00,
2013-01-25 23:36:00,34.7,34.0,29.99,ENE,77,1.0,3.0,98,0.01,,,0.37,weatherlink.com 1.10,2013-01-26 07:36:00,
2013-01-25 23:51:00,35.0,35.0,29.99,ENE,72,0.0,3.0,98,0.00,,,0.37,weatherlink.com 1.10,2013-01-26 07:51:00,